Weather History for Saginaw Browne, MI

Change the Weather History Date:

Monday, March 10, 2014

  Actual Average (KMBS) Record (KMBS)
Temperature  
Mean Temperature 38 °F 31 °F  
Max Temperature 44 °F 40 °F 52 °F (2009)
Min Temperature 32 °F 23 °F 0 °F (2003)
Degree Days  
Heating Degree Days 27    
Month to date heating degree days  
Since 1 July heating degree days  
Cooling Degree Days 0    
Month to date cooling degree days  
Year to date cooling degree days  
Moisture  
Dew Point 31 °F    
Average Humidity 77    
Maximum Humidity 93    
Minimum Humidity 61    
Precipitation  
Precipitation 0.00 in 0.06 in 0.41 in (2006)
Month to date precipitation 0.68  
Year to date precipitation 4.00  
Snow  
Snow 0.00 in - - ()
Month to date snowfall  
Since 1 July snowfall  
Snow Depth -    
Sea Level Pressure  
Sea Level Pressure 29.61 in    
Wind  
Wind Speed 12 mph (SW)    
Max Wind Speed 18 mph    
Max Gust Speed 22 mph    
Visibility 8 miles    
Events      
T = Trace of Precipitation, MM = Missing Value Source: NWS Daily Summary

Daily Weather History Graph

Daily Weather History Graph

Search for Another Location

Airport:

Trip Planner

Search our weather history database for the weather conditions in past years. The results will help you decide how hot, cold, wet, or windy it might be!

Date:

Astronomy

Mar. 10, 2014 Rise Set
Actual Time 7:56 AM EDT 7:35 PM EDT
Civil Twilight 7:27 AM EDT 8:04 PM EDT
Nautical Twilight 6:54 AM EDT 8:37 PM EDT
Astronomical Twilight 6:21 AM EDT 9:10 PM EDT
Moon 2:11 PM EDT (3/10) 4:14 AM EDT (3/10)
Length of Visible Light 12h 36m
Length of Day
11h 39m
Waxing Gibbous, 70% of the Moon is Illuminated
Mar 10
Waxing Gibbous
Mar 16
Full
Mar 23
Last Quarter
Mar 30
New
Apr 7
First Quarter

Hourly Weather History & Observations

Time (EDT) Temp. Windchill Dew Point Humidity Pressure Visibility Wind Dir Wind Speed Gust Speed Precip Events Conditions
12:15 AM 32.0 °F 21.2 °F 26.6 °F 80% 29.75 in 10.0 mi WSW 16.1 mph - N/A   Clear
12:34 AM 32.0 °F 21.6 °F 26.6 °F 80% 29.75 in 10.0 mi WSW 15.0 mph - N/A   Clear
12:55 AM 32.0 °F 22.1 °F 28.4 °F 87% 29.75 in 10.0 mi WSW 13.8 mph - N/A   Clear
1:15 AM 32.0 °F 23.0 °F 28.4 °F 87% 29.75 in 10.0 mi WSW 11.5 mph - N/A   Clear
1:34 AM 32.0 °F 23.6 °F 28.4 °F 87% 29.74 in 10.0 mi WSW 10.4 mph - N/A   Clear
1:55 AM 33.8 °F 25.3 °F 28.4 °F 81% 29.73 in 10.0 mi SW 11.5 mph - N/A   Scattered Clouds
2:15 AM 33.8 °F 24.8 °F 30.2 °F 87% 29.73 in 10.0 mi SW 12.7 mph - N/A   Scattered Clouds
2:34 AM 33.8 °F 24.3 °F 30.2 °F 87% 29.72 in 10.0 mi SW 13.8 mph 17.3 mph N/A   Scattered Clouds
2:55 AM 33.8 °F 24.8 °F 30.2 °F 87% 29.72 in 10.0 mi SW 12.7 mph 19.6 mph N/A   Clear
3:15 AM 33.8 °F 25.3 °F 30.2 °F 87% 29.71 in 7.0 mi SW 11.5 mph 17.3 mph N/A   Clear
3:34 AM 33.8 °F 25.8 °F 30.2 °F 87% 29.70 in 7.0 mi SW 10.4 mph - N/A   Clear
3:55 AM 35.6 °F 27.5 °F 30.2 °F 81% 29.70 in 7.0 mi SW 11.5 mph - N/A   Clear
4:15 AM 35.6 °F 28.6 °F 30.2 °F 81% 29.69 in 7.0 mi SW 9.2 mph - N/A   Clear
4:34 AM 35.6 °F 28.6 °F 30.2 °F 81% 29.68 in 7.0 mi SW 9.2 mph - N/A   Clear
4:55 AM 33.8 °F 25.8 °F 30.2 °F 87% 29.67 in 7.0 mi SW 10.4 mph - N/A   Scattered Clouds
5:15 AM 33.8 °F 26.4 °F 32.0 °F 93% 29.67 in 7.0 mi SW 9.2 mph - N/A   Scattered Clouds
5:34 AM 33.8 °F 27.7 °F 30.2 °F 87% 29.67 in 7.0 mi SW 6.9 mph - N/A   Clear
5:55 AM 33.8 °F 27.0 °F 30.2 °F 87% 29.67 in 7.0 mi SW 8.1 mph - N/A   Scattered Clouds
6:15 AM 33.8 °F 27.7 °F 30.2 °F 87% 29.67 in 7.0 mi SW 6.9 mph - N/A   Mostly Cloudy
6:34 AM 33.8 °F 27.7 °F 30.2 °F 87% 29.67 in 7.0 mi SW 6.9 mph - N/A   Overcast
6:55 AM 33.8 °F 27.7 °F 32.0 °F 93% 29.66 in 7.0 mi SW 6.9 mph - N/A   Overcast
7:15 AM 33.8 °F 27.7 °F 32.0 °F 93% 29.66 in 7.0 mi SW 6.9 mph - N/A   Overcast
7:35 AM 33.8 °F 28.6 °F 32.0 °F 93% 29.66 in 7.0 mi SW 5.8 mph - N/A   Overcast
7:55 AM 33.8 °F 27.0 °F 32.0 °F 93% 29.65 in 5.0 mi SW 8.1 mph - N/A   Overcast
8:15 AM 33.8 °F 27.0 °F 32.0 °F 93% 29.65 in 5.0 mi SW 8.1 mph - N/A   Overcast
8:35 AM 33.8 °F 26.4 °F 32.0 °F 93% 29.65 in 5.0 mi SW 9.2 mph - N/A   Mostly Cloudy
8:55 AM 33.8 °F 27.7 °F 30.2 °F 87% 29.65 in 5.0 mi SW 6.9 mph - N/A   Haze
9:15 AM 33.8 °F 26.4 °F 30.2 °F 87% 29.65 in 5.0 mi SW 9.2 mph - N/A   Haze
9:35 AM 35.6 °F 29.2 °F 32.0 °F 87% 29.64 in 5.0 mi SW 8.1 mph - N/A   Haze
9:55 AM 35.6 °F 29.9 °F 32.0 °F 87% 29.64 in 5.0 mi SW 6.9 mph - N/A   Haze
10:15 AM 35.6 °F 30.7 °F 32.0 °F 87% 29.64 in 5.0 mi SW 5.8 mph - N/A   Haze
10:35 AM 37.4 °F 31.4 °F 32.0 °F 81% 29.63 in 5.0 mi SW 8.1 mph - N/A   Haze
10:55 AM 37.4 °F 31.4 °F 32.0 °F 81% 29.63 in 5.0 mi SW 8.1 mph - N/A   Haze
11:15 AM 37.4 °F 31.4 °F 32.0 °F 81% 29.61 in 5.0 mi SSW 8.1 mph - N/A   Haze
11:35 AM 37.4 °F 29.8 °F 32.0 °F 81% 29.62 in 5.0 mi SW 11.5 mph - N/A   Haze
11:55 AM 37.4 °F 29.3 °F 32.0 °F 81% 29.60 in 5.0 mi SSW 12.7 mph - N/A   Haze
12:14 PM 39.2 °F 32.0 °F 32.0 °F 75% 29.60 in 5.0 mi SW 11.5 mph - N/A   Haze
12:35 PM 39.2 °F 30.5 °F 32.0 °F 75% 29.59 in 5.0 mi SW 16.1 mph - N/A   Haze
12:55 PM 41.0 °F 32.8 °F 32.0 °F 70% 29.58 in 7.0 mi SSW 16.1 mph - N/A   Clear
1:14 PM 41.0 °F 33.1 °F 32.0 °F 70% 29.58 in 7.0 mi SW 15.0 mph - N/A   Clear
1:35 PM 41.0 °F 33.5 °F 32.0 °F 70% 29.58 in 7.0 mi SW 13.8 mph - N/A   Clear
1:55 PM 41.0 °F 33.1 °F 32.0 °F 70% 29.56 in 7.0 mi SW 15.0 mph - N/A   Clear
2:14 PM 41.0 °F 32.5 °F 32.0 °F 70% 29.54 in 7.0 mi SW 17.3 mph - N/A   Clear
2:35 PM 42.8 °F 35.4 °F 32.0 °F 66% 29.53 in 7.0 mi SW 15.0 mph - N/A   Clear
2:55 PM 42.8 °F 35.4 °F 32.0 °F 66% 29.52 in 10.0 mi SW 15.0 mph - N/A   Clear
3:14 PM 42.8 °F 35.4 °F 32.0 °F 66% 29.52 in 10.0 mi SW 15.0 mph - N/A   Clear
3:35 PM 42.8 °F 35.4 °F 32.0 °F 66% 29.51 in 10.0 mi SW 15.0 mph - N/A   Clear
3:55 PM 42.8 °F 34.8 °F 32.0 °F 66% 29.49 in 10.0 mi SW 17.3 mph - N/A   Clear
4:14 PM 42.8 °F 34.5 °F 32.0 °F 66% 29.49 in 10.0 mi SW 18.4 mph - N/A   Clear
4:35 PM 44.6 °F 37.8 °F 32.0 °F 61% 29.48 in 10.0 mi SW 15.0 mph - N/A   Clear
4:55 PM 42.8 °F 35.4 °F 32.0 °F 66% 29.48 in 10.0 mi SW 15.0 mph - N/A   Clear
5:14 PM 42.8 °F 35.1 °F 32.0 °F 66% 29.48 in 10.0 mi SW 16.1 mph - N/A   Clear
5:35 PM 42.8 °F 36.2 °F 32.0 °F 66% 29.49 in 10.0 mi SW 12.7 mph - N/A   Clear
5:55 PM 44.6 °F 37.8 °F 32.0 °F 61% 29.49 in 10.0 mi SW 15.0 mph - N/A   Clear
6:14 PM 44.6 °F 37.8 °F 32.0 °F 61% 29.49 in 10.0 mi SW 15.0 mph - N/A   Clear
6:35 PM 44.6 °F 37.8 °F 32.0 °F 61% 29.50 in 10.0 mi WSW 15.0 mph 19.6 mph N/A   Clear
6:55 PM 44.6 °F 37.4 °F 32.0 °F 61% 29.51 in 10.0 mi WSW 16.1 mph 19.6 mph N/A   Clear
7:14 PM 44.6 °F 37.8 °F 32.0 °F 61% 29.52 in 10.0 mi WSW 15.0 mph 21.9 mph N/A   Clear
7:35 PM 44.6 °F 37.8 °F 32.0 °F 61% 29.52 in 10.0 mi WSW 15.0 mph - N/A   Clear
7:55 PM 42.8 °F 35.4 °F 32.0 °F 66% 29.53 in 10.0 mi WSW 15.0 mph 18.4 mph N/A   Clear
8:15 PM 42.8 °F 36.2 °F 32.0 °F 66% 29.54 in 10.0 mi WSW 12.7 mph - N/A   Clear
8:35 PM 42.8 °F 36.6 °F 32.0 °F 66% 29.55 in 10.0 mi WSW 11.5 mph - N/A   Clear
8:55 PM 42.8 °F 37.0 °F 32.0 °F 66% 29.56 in 10.0 mi WSW 10.4 mph - N/A   Clear
9:15 PM 41.0 °F 34.3 °F 32.0 °F 70% 29.56 in 10.0 mi WSW 11.5 mph - N/A   Clear
9:35 PM 41.0 °F 33.5 °F 32.0 °F 70% 29.56 in 10.0 mi WSW 13.8 mph - N/A   Clear
9:55 PM 41.0 °F 34.7 °F 32.0 °F 70% 29.57 in 10.0 mi WSW 10.4 mph - N/A   Clear
10:15 PM 41.0 °F 34.7 °F 32.0 °F 70% 29.58 in 10.0 mi WSW 10.4 mph - N/A   Clear
10:35 PM 41.0 °F 34.7 °F 32.0 °F 70% 29.59 in 10.0 mi SW 10.4 mph - N/A   Clear
10:55 PM 37.4 °F 30.3 °F 32.0 °F 81% 29.59 in 10.0 mi SW 10.4 mph - N/A   Clear
11:15 PM 37.4 °F 31.4 °F 32.0 °F 81% 29.60 in 10.0 mi SW 8.1 mph - N/A   Clear
11:35 PM 37.4 °F 31.4 °F 32.0 °F 81% 29.59 in 10.0 mi WSW 8.1 mph - N/A   Clear
11:55 PM 37.4 °F 30.8 °F 32.0 °F 81% 29.59 in 10.0 mi SW 9.2 mph - N/A   Clear